QPF
0.01 0.01 0.01 0.00 0.00 0.00 0.00 0.00 0.00 0.00 0.00 0.00 0.00 0.00 0.00 0.00 0.00 0.00 0.00 0.00 0.00 0.00 0.00 0.00 0.00 0.00 0.00 0.00 0.00 0.00 0.00 0.00 0.00 0.01 0.01 0.01 0.01 0.02 0.01 0.01 0.02 0.03 0.02
0.01 0.01 0.01 0.01 0.00 0.00 0.00 0.00 0.00 0.00 0.00 0.00 0.00 0.00 0.00 0.00 0.00 0.00 0.00 0.00 0.00 0.00 0.00 0.00 0.00 0.00 0.01 0.01 0.00 0.00 0.01 0.01 0.01 0.00 0.00 0.00 0.01 0.02 0.03 0.02 0.02 0.04 0.03
0.01 0.01 0.01 0.00 0.00 0.00 0.00 0.01 0.00 0.00 0.00 0.00 0.00 0.00 0.00 0.00 0.00 0.00 0.00 0.00 0.00 0.00 0.00 0.00 0.00 0.00 0.00 0.00 0.00 0.00 0.00 0.01 0.01 0.01 0.01 0.01 0.00 0.00 0.02 0.02 0.02 0.03 0.03
0.00 0.01 0.00 0.00 0.00 0.00 0.00 0.00 0.00 0.00 0.00 0.00 0.00 0.00 0.00 0.00 0.00 0.00 0.00 0.00 0.00 0.00 0.00 0.00 0.00 0.00 0.01 0.01 0.00 0.01 0.01 0.01 0.01 0.02 0.01 0.01 0.00 0.01 0.01 0.02 0.03 0.04 0.04
0.00 0.00 0.00 0.00 0.00 0.00 0.00 0.00 0.00 0.00 0.00 0.00 0.00 0.00 0.00 0.00 0.00 0.00 0.00 0.00 0.00 0.00 0.00 0.00 0.00 0.00 0.00 0.00 0.00 0.00 0.01 0.01 0.01 0.01 0.01 0.01 0.01 0.02 0.02 0.02 0.04 0.04 0.03
0.00 0.00 0.00 0.00 0.00 0.00 0.00 0.00 0.00 0.00 0.00 0.00 0.00 0.00 0.00 0.00 0.00 0.00 0.00 0.00 0.00 0.00 0.00 0.00 0.00 0.00 0.00 0.00 0.00 0.00 0.00 0.00 0.00 0.01 0.01 0.01 0.01 0.01 0.02 0.01 0.02 0.04 0.03
0.00 0.00 0.00 0.00 0.00 0.00 0.00 0.00 0.00 0.00 0.00 0.00 0.00 0.00 0.00 0.00 0.00 0.00 0.00 0.00 0.00 0.00 0.00 0.00 0.00 0.00 0.00 0.00 0.00 0.00 0.00 0.00 0.00 0.00 0.01 0.01 0.01 0.01 0.01 0.01 0.01 0.02 0.02
0.00 0.00 0.00 0.00 0.00 0.00 0.00 0.00 0.00 0.00 0.01 0.01 0.00 0.00 0.00 0.00 0.00 0.00 0.00 0.00 0.00 0.00 0.00 0.00 0.01 0.00 0.01 0.01 0.00 0.00 0.00 0.00 0.00 0.00 0.00 0.00 0.01 0.01 0.01 0.01 0.02 0.02 0.01
0.00 0.00 0.00 0.00 0.00 0.00 0.00 0.00 0.00 0.00 0.00 0.01 0.01 0.01 0.01 0.01 0.01 0.01 0.00 0.00 0.01 0.01 0.01 0.00 0.00 0.01 0.01 0.01 0.01 0.00 0.01 0.00 0.00 0.01 0.00 0.00 0.01 0.01 0.02 0.02 0.02 0.01 0.01
0.00 0.00 0.00 0.00 0.00 0.01 0.00 0.00 0.00 0.00 0.00 0.01 0.01 0.01 0.01 0.01 0.01 0.01 0.01 0.01 0.01 0.01 0.00 0.01 0.01 0.01 0.01 0.01 0.01 0.01 0.02 0.01 0.00 0.01 0.00 0.00 0.01 0.02 0.03 0.01 0.01 0.01 0.01
0.00 0.00 0.00 0.00 0.00 0.00 0.01 0.01 0.01 0.01 0.01 0.01 0.01 0.01 0.01 0.01 0.01 0.01 0.01 0.00 0.00 0.00 0.00 0.01 0.01 0.01 0.01 0.01 0.01 0.01 0.01 0.01 0.01 0.00 0.00 0.01 0.02 0.03 0.02 0.01 0.00 0.00 0.01
0.00 0.00 0.00 0.00 0.00 0.00 0.01 0.01 0.01 0.01 0.01 0.01 0.01 0.00 0.00 0.00 0.00 0.00 0.00 0.00 0.00 0.00 0.00 0.00 0.00 0.00 0.00 0.00 0.01 0.00 0.01 0.01 0.01 0.01 0.01 0.01 0.01 0.02 0.02 0.01 0.00 0.00 0.00
0.00 0.00 0.00 0.00 0.00 0.00 0.00 0.00 0.00 0.00 0.00 0.00 0.00 0.00 0.00 0.00 0.00 0.00 0.00 0.00 0.00 0.00 0.00 0.00 0.00 0.00 0.00 0.00 0.00 0.00 0.00 0.00 0.00 0.01 0.01 0.01 0.01 0.01 0.01 0.01 0.00 0.00 0.01
0.00 0.00 0.00 0.00 0.00 0.00 0.00 0.00 0.00 0.00 0.00 0.00 0.00 0.00 0.00 0.00 0.00 0.00 0.00 0.00 0.00 0.00 0.00 0.00 0.00 0.00 0.00 0.00 0.00 0.00 0.00 0.00 0.00 0.00 0.00 0.00 0.00 0.00 0.01 0.00 0.00 0.00 0.00
0.00 0.00 0.00 0.00 0.00 0.00 0.00 0.00 0.00 0.01 0.00 0.00 0.00 0.00 0.00 0.00 0.00 0.00 0.00 0.00 0.00 0.00 0.00 0.00 0.00 0.00 0.00 0.00 0.00 0.00 0.00 0.00 0.00 0.00 0.00 0.00 0.00 0.00 0.00 0.00 0.00 0.00 0.00
0.00 0.00 0.00 0.00 0.00 0.00 0.00 0.00 0.00 0.01 0.01 0.00 0.00 0.00 0.00 0.00 0.00 0.00 0.00 0.00 0.00 0.00 0.00 0.00 0.00 0.00 0.00 0.00 0.00 0.00 0.00 0.00 0.00 0.00 0.00 0.00 0.00 0.00 0.00 0.00 0.00 0.00 0.00
0.01 0.00 0.00 0.00 0.00 0.00 0.00 0.00 0.00 0.00 0.00 0.00 0.00 0.00 0.00 0.00 0.00 0.00 0.00 0.00 0.00 0.00 0.00 0.00 0.00 0.00 0.00 0.00 0.00 0.01 0.00 0.00 0.00 0.00 0.00 0.00 0.00 0.00 0.00 0.00 0.00 0.00 0.00
0.00 0.00 0.00 0.00 0.00 0.00 0.00 0.00 0.00 0.00 0.00 0.00 0.00 0.00 0.00 0.00 0.00 0.00 0.00 0.00 0.00 0.00 0.00 0.00 0.00 0.00 0.00 0.00 0.00 0.01 0.00 0.00 0.00 0.00 0.00 0.00 0.00 0.00 0.00 0.00 0.00 0.00 0.00
0.00 0.00 0.00 0.00 0.00 0.00 0.00 0.01 0.01 0.01 0.00 0.00 0.00 0.00 0.00 0.01 0.01 0.01 0.01 0.01 0.00 0.00 0.00 0.00 0.00 0.00 0.00 0.00 0.00 0.00 0.00 0.00 0.00 0.00 0.00 0.00 0.00 0.00 0.00 0.00 0.00 0.00 0.01
0.00 0.00 0.00 0.00 0.00 0.00 0.00 0.00 0.01 0.01 0.02 0.02 0.02 0.02 0.02 0.01 0.01 0.01 0.01 0.00 0.00 0.00 0.00 0.00 0.00 0.00 0.00 0.00 0.00 0.00 0.00 0.00 0.00 0.00 0.00 0.00 0.00 0.00 0.00 0.00 0.00 0.00 0.00
0.00 0.00 0.00 0.00 0.00 0.00 0.00 0.00 0.01 0.01 0.01 0.01 0.02 0.02 0.02 0.02 0.01 0.01 0.00 0.00 0.00 0.00 0.01 0.01 0.01 0.01 0.00 0.00 0.00 0.00 0.00 0.00 0.00 0.00 0.00 0.00 0.00 0.00 0.00 0.00 0.00 0.00 0.00
0.00 0.00 0.00 0.00 0.00 0.00 0.00 0.01 0.01 0.01 0.01 0.01 0.01 0.01 0.01 0.01 0.01 0.00 0.00 0.00 0.00 0.00 0.00 0.00 0.01 0.02 0.01 0.01 0.00 0.00 0.00 0.00 0.00 0.00 0.00 0.00 0.00 0.00 0.00 0.00 0.00 0.00 0.00
0.00 0.00 0.00 0.00 0.00 0.00 0.00 0.01 0.01 0.01 0.01 0.01 0.01 0.01 0.01 0.03 0.02 0.01 0.00 0.01 0.00 0.00 0.00 0.00 0.01 0.03 0.03 0.02 0.01 0.01 0.00 0.00 0.00 0.00 0.00 0.00 0.00 0.00 0.00 0.00 0.00 0.00 0.00
0.00 0.00 0.00 0.00 0.00 0.00 0.00 0.01 0.01 0.01 0.01 0.01 0.01 0.01 0.01 0.03 0.01 0.01 0.00 0.00 0.00 0.00 0.00 0.00 0.00 0.01 0.02 0.02 0.03 0.03 0.01 0.00 0.01 0.01 0.00 0.00 0.00 0.00 0.00 0.00 0.00 0.00 0.01
0.00 0.00 0.00 0.00 0.00 0.00 0.00 0.01 0.01 0.01 0.01 0.01 0.01 0.02 0.02 0.02 0.01 0.00 0.00 0.00 0.00 0.00 0.00 0.00 0.00 0.00 0.00 0.01 0.02 0.03 0.03 0.02 0.01 0.01 0.00 0.01 0.00 0.00 0.00 0.00 0.01 0.01 0.01
0.00 0.00 0.00 0.00 0.00 0.00 0.00 0.00 0.01 0.01 0.01 0.02 0.02 0.02 0.02 0.01 0.01 0.01 0.00 0.00 0.00 0.00 0.00 0.00 0.00 0.00 0.00 0.01 0.01 0.01 0.03 0.04 0.05 0.04 0.03 0.03 0.02 0.01 0.01 0.01 0.01 0.01 0.01
MSLP
1019.08 1019.04 1018.98 1018.90 1018.80 1018.72 1018.67 1018.67 1018.73 1018.85 1019.02 1019.23 1019.43 1019.61 1019.73 1019.78 1019.75 1019.65 1019.50 1019.31 1019.13 1018.97 1018.86 1018.80 1018.80 1018.86 1018.95 1019.06 1019.17 1019.28 1019.37 1019.45 1019.50 1019.52 1019.51 1019.46 1019.38 1019.25 1019.07 1018.85 1018.60 1018.34 1018.08
1019.24 1019.25 1019.23 1019.16 1019.06 1018.95 1018.85 1018.80 1018.83 1018.95 1019.14 1019.38 1019.64 1019.88 1020.07 1020.16 1020.16 1020.07 1019.91 1019.71 1019.51 1019.34 1019.23 1019.18 1019.19 1019.25 1019.34 1019.45 1019.55 1019.64 1019.71 1019.77 1019.81 1019.83 1019.83 1019.81 1019.75 1019.65 1019.51 1019.31 1019.09 1018.84 1018.60
1019.27 1019.35 1019.39 1019.37 1019.28 1019.16 1019.04 1018.96 1018.96 1019.06 1019.25 1019.52 1019.81 1020.10 1020.32 1020.45 1020.47 1020.40 1020.24 1020.05 1019.85 1019.69 1019.58 1019.54 1019.56 1019.62 1019.72 1019.81 1019.90 1019.97 1020.02 1020.06 1020.09 1020.12 1020.14 1020.14 1020.12 1020.07 1019.96 1019.80 1019.60 1019.37 1019.13
1019.15 1019.32 1019.44 1019.48 1019.44 1019.33 1019.21 1019.11 1019.09 1019.16 1019.35 1019.61 1019.92 1020.22 1020.47 1020.62 1020.67 1020.62 1020.49 1020.31 1020.14 1019.99 1019.90 1019.88 1019.91 1019.98 1020.07 1020.15 1020.22 1020.27 1020.30 1020.32 1020.35 1020.39 1020.43 1020.47 1020.48 1020.47 1020.40 1020.28 1020.10 1019.88 1019.63
1018.89 1019.15 1019.36 1019.48 1019.49 1019.42 1019.31 1019.21 1019.17 1019.23 1019.39 1019.64 1019.94 1020.25 1020.51 1020.68 1020.76 1020.73 1020.63 1020.50 1020.36 1020.25 1020.19 1020.19 1020.24 1020.32 1020.40 1020.47 1020.51 1020.54 1020.55 1020.56 1020.58 1020.62 1020.68 1020.75 1020.80 1020.82 1020.78 1020.69 1020.53 1020.31 1020.06
1018.50 1018.85 1019.15 1019.35 1019.43 1019.41 1019.33 1019.24 1019.19 1019.24 1019.38 1019.61 1019.89 1020.19 1020.45 1020.64 1020.74 1020.76 1020.70 1020.62 1020.53 1020.47 1020.45 1020.48 1020.55 1020.63 1020.71 1020.76 1020.78 1020.78 1020.77 1020.76 1020.77 1020.82 1020.88 1020.97 1021.04 1021.09 1021.08 1021.00 1020.85 1020.64 1020.38
1018.06 1018.48 1018.85 1019.12 1019.27 1019.30 1019.25 1019.19 1019.15 1019.18 1019.31 1019.52 1019.79 1020.08 1020.34 1020.55 1020.68 1020.73 1020.73 1020.70 1020.68 1020.67 1020.70 1020.76 1020.85 1020.93 1021.00 1021.03 1021.03 1021.00 1020.96 1020.93 1020.92 1020.95 1021.02 1021.11 1021.19 1021.25 1021.26 1021.20 1021.06 1020.86 1020.60
1017.64 1018.09 1018.50 1018.83 1019.03 1019.11 1019.11 1019.07 1019.06 1019.10 1019.23 1019.44 1019.70 1019.98 1020.25 1020.47 1020.62 1020.72 1020.77 1020.80 1020.83 1020.88 1020.95 1021.04 1021.14 1021.23 1021.28 1021.29 1021.26 1021.20 1021.13 1021.07 1021.04 1021.05 1021.10 1021.18 1021.26 1021.33 1021.35 1021.30 1021.18 1021.00 1020.75
1017.31 1017.76 1018.19 1018.53 1018.76 1018.89 1018.93 1018.94 1018.96 1019.04 1019.19 1019.40 1019.66 1019.95 1020.22 1020.46 1020.64 1020.77 1020.87 1020.95 1021.02 1021.12 1021.23 1021.34 1021.45 1021.53 1021.57 1021.55 1021.50 1021.40 1021.30 1021.21 1021.15 1021.13 1021.16 1021.23 1021.30 1021.37 1021.40 1021.37 1021.27 1021.11 1020.89
1017.15 1017.56 1017.96 1018.30 1018.54 1018.70 1018.79 1018.85 1018.93 1019.05 1019.24 1019.48 1019.76 1020.06 1020.33 1020.58 1020.78 1020.94 1021.06 1021.18 1021.29 1021.42 1021.55 1021.68 1021.79 1021.86 1021.88 1021.85 1021.77 1021.65 1021.51 1021.39 1021.31 1021.27 1021.27 1021.31 1021.38 1021.44 1021.47 1021.46 1021.40 1021.27 1021.09
1017.18 1017.54 1017.89 1018.19 1018.42 1018.60 1018.74 1018.86 1019.01 1019.20 1019.44 1019.73 1020.03 1020.34 1020.63 1020.88 1021.08 1021.25 1021.39 1021.52 1021.66 1021.80 1021.95 1022.08 1022.19 1022.25 1022.26 1022.21 1022.11 1021.97 1021.82 1021.68 1021.57 1021.51 1021.49 1021.52 1021.56 1021.62 1021.66 1021.66 1021.63 1021.54 1021.40
1017.42 1017.70 1017.98 1018.23 1018.45 1018.64 1018.82 1019.02 1019.24 1019.51 1019.82 1020.15 1020.49 1020.82 1021.10 1021.35 1021.55 1021.71 1021.85 1021.99 1022.13 1022.28 1022.42 1022.56 1022.67 1022.72 1022.73 1022.67 1022.56 1022.42 1022.26 1022.11 1021.99 1021.91 1021.87 1021.88 1021.91 1021.95 1021.99 1022.00 1021.99 1021.93 1021.83
1017.83 1018.02 1018.23 1018.43 1018.63 1018.83 1019.06 1019.33 1019.63 1019.98 1020.36 1020.74 1021.11 1021.45 1021.74 1021.97 1022.15 1022.30 1022.43 1022.56 1022.70 1022.84 1022.99 1023.12 1023.23 1023.29 1023.29 1023.24 1023.13 1022.99 1022.84 1022.69 1022.56 1022.47 1022.42 1022.41 1022.42 1022.44 1022.47 1022.48 1022.47 1022.43 1022.36
1018.34 1018.46 1018.60 1018.76 1018.94 1019.17 1019.45 1019.78 1020.16 1020.58 1021.02 1021.45 1021.85 1022.19 1022.47 1022.69 1022.86 1022.99 1023.10 1023.22 1023.35 1023.49 1023.64 1023.77 1023.88 1023.94 1023.95 1023.91 1023.82 1023.69 1023.55 1023.41 1023.28 1023.19 1023.12 1023.08 1023.06 1023.06 1023.05 1023.04 1023.02 1022.98 1022.91
1018.87 1018.95 1019.05 1019.18 1019.37 1019.61 1019.94 1020.33 1020.78 1021.27 1021.76 1022.22 1022.63 1022.98 1023.25 1023.45 1023.60 1023.72 1023.82 1023.94 1024.06 1024.21 1024.35 1024.49 1024.60 1024.67 1024.69 1024.66 1024.58 1024.47 1024.34 1024.21 1024.09 1023.98 1023.90 1023.83 1023.77 1023.73 1023.68 1023.63 1023.58 1023.51 1023.42
1019.37 1019.44 1019.52 1019.65 1019.84 1020.12 1020.49 1020.93 1021.44 1021.97 1022.50 1022.98 1023.40 1023.75 1024.01 1024.20 1024.34 1024.46 1024.56 1024.68 1024.81 1024.95 1025.11 1025.25 1025.36 1025.44 1025.46 1025.44 1025.37 1025.27 1025.15 1025.02 1024.89 1024.78 1024.67 1024.57 1024.47 1024.37 1024.27 1024.16 1024.06 1023.95 1023.83
1019.79 1019.87 1019.97 1020.11 1020.34 1020.65 1021.06 1021.55 1022.09 1022.65 1023.19 1023.69 1024.11 1024.45 1024.71 1024.90 1025.04 1025.16 1025.28 1025.41 1025.55 1025.71 1025.87 1026.01 1026.12 1026.19 1026.21 1026.19 1026.12 1026.02 1025.89 1025.76 1025.63 1025.49 1025.36 1025.22 1025.07 1024.92 1024.76 1024.59 1024.42 1024.26 1024.09
1020.10 1020.23 1020.37 1020.56 1020.82 1021.17 1021.61 1022.13 1022.69 1023.26 1023.81 1024.30 1024.72 1025.06 1025.32 1025.52 1025.68 1025.82 1025.95 1026.10 1026.26 1026.43 1026.59 1026.73 1026.83 1026.89 1026.89 1026.85 1026.77 1026.65 1026.52 1026.37 1026.22 1026.07 1025.91 1025.73 1025.54 1025.34 1025.12 1024.89 1024.66 1024.44 1024.23
1020.32 1020.52 1020.72 1020.96 1021.27 1021.66 1022.13 1022.66 1023.23 1023.80 1024.34 1024.82 1025.24 1025.57 1025.84 1026.06 1026.24 1026.41 1026.57 1026.74 1026.92 1027.09 1027.25 1027.37 1027.45 1027.47 1027.45 1027.38 1027.27 1027.13 1026.98 1026.82 1026.65 1026.48 1026.30 1026.09 1025.87 1025.62 1025.36 1025.08 1024.81 1024.54 1024.29
1020.47 1020.75 1021.02 1021.33 1021.69 1022.12 1022.61 1023.15 1023.71 1024.27 1024.79 1025.26 1025.67 1026.01 1026.29 1026.52 1026.73 1026.92 1027.11 1027.30 1027.48 1027.65 1027.78 1027.88 1027.92 1027.91 1027.85 1027.75 1027.61 1027.45 1027.28 1027.11 1026.93 1026.74 1026.54 1026.32 1026.08 1025.81 1025.52 1025.22 1024.92 1024.62 1024.33
1020.57 1020.93 1021.29 1021.67 1022.08 1022.55 1023.05 1023.59 1024.14 1024.67 1025.18 1025.63 1026.03 1026.37 1026.67 1026.92 1027.15 1027.36 1027.56 1027.76 1027.93 1028.07 1028.18 1028.24 1028.24 1028.19 1028.09 1027.95 1027.79 1027.61 1027.43 1027.25 1027.07 1026.88 1026.68 1026.47 1026.22 1025.95 1025.66 1025.35 1025.04 1024.72 1024.42
1020.63 1021.09 1021.53 1021.97 1022.44 1022.93 1023.45 1023.98 1024.52 1025.03 1025.51 1025.95 1026.34 1026.69 1026.99 1027.26 1027.50 1027.72 1027.92 1028.09 1028.24 1028.35 1028.42 1028.43 1028.39 1028.30 1028.17 1028.01 1027.83 1027.65 1027.47 1027.30 1027.13 1026.96 1026.77 1026.57 1026.34 1026.09 1025.80 1025.51 1025.20 1024.89 1024.58
1020.66 1021.20 1021.72 1022.23 1022.74 1023.26 1023.79 1024.32 1024.84 1025.34 1025.80 1026.23 1026.61 1026.95 1027.26 1027.52 1027.76 1027.98 1028.16 1028.31 1028.42 1028.48 1028.50 1028.46 1028.38 1028.26 1028.11 1027.94 1027.77 1027.61 1027.45 1027.30 1027.15 1027.00 1026.84 1026.66 1026.45 1026.22 1025.96 1025.69 1025.40 1025.10 1024.80
1020.64 1021.26 1021.85 1022.42 1022.98 1023.53 1024.07 1024.60 1025.10 1025.58 1026.03 1026.45 1026.82 1027.16 1027.46 1027.72 1027.95 1028.14 1028.29 1028.40 1028.46 1028.48 1028.44 1028.36 1028.25 1028.11 1027.96 1027.80 1027.65 1027.51 1027.39 1027.27 1027.16 1027.04 1026.91 1026.75 1026.57 1026.36 1026.12 1025.87 1025.60 1025.32 1025.02
1020.56 1021.25 1021.91 1022.53 1023.13 1023.71 1024.26 1024.79 1025.29 1025.76 1026.19 1026.60 1026.96 1027.29 1027.59 1027.84 1028.04 1028.21 1028.32 1028.38 1028.40 1028.36 1028.28 1028.17 1028.04 1027.89 1027.75 1027.62 1027.50 1027.40 1027.32 1027.24 1027.16 1027.07 1026.96 1026.82 1026.65 1026.46 1026.24 1026.00 1025.74 1025.47 1025.18
1020.41 1021.17 1021.88 1022.56 1023.19 1023.80 1024.36 1024.89 1025.38 1025.84 1026.27 1026.67 1027.03 1027.35 1027.64 1027.87 1028.06 1028.20 1028.27 1028.30 1028.27 1028.19 1028.08 1027.94 1027.80 1027.66 1027.54 1027.44 1027.36 1027.30 1027.25 1027.21 1027.15 1027.08 1026.98 1026.84 1026.67 1026.48 1026.26 1026.02 1025.77 1025.50 1025.21
Thickness
5722 5726 5728 5728 5728 5728 5728 5727 5726 5727 5727 5725 5722 5720 5719 5721 5721 5722 5722 5721 5720 5719 5718 5717 5715 5714 5712 5709 5708 5706 5704 5702 5702 5699 5696 5697 5699 5699 5700 5701 5702 5702 5703
5718 5721 5724 5725 5725 5725 5725 5725 5725 5725 5725 5724 5722 5721 5719 5718 5719 5719 5719 5719 5718 5718 5716 5715 5713 5711 5710 5707 5706 5705 5702 5700 5701 5697 5691 5688 5690 5694 5697 5697 5698 5699 5700
5716 5718 5720 5721 5722 5722 5723 5724 5723 5724 5724 5724 5722 5720 5717 5716 5715 5715 5715 5716 5716 5715 5714 5713 5711 5710 5708 5705 5704 5704 5702 5698 5698 5698 5694 5686 5683 5686 5691 5693 5694 5695 5696
5719 5719 5719 5719 5721 5722 5724 5723 5723 5722 5722 5722 5720 5717 5713 5710 5711 5712 5713 5714 5714 5713 5712 5711 5710 5708 5707 5705 5704 5703 5702 5700 5697 5697 5697 5695 5692 5686 5684 5687 5690 5692 5692
5720 5720 5720 5721 5722 5723 5723 5722 5722 5721 5721 5720 5719 5716 5713 5711 5711 5711 5711 5711 5711 5710 5710 5709 5708 5707 5705 5704 5703 5702 5701 5700 5698 5696 5695 5693 5691 5690 5685 5681 5684 5686 5688
5720 5720 5721 5721 5720 5721 5721 5721 5719 5718 5719 5719 5717 5715 5713 5711 5709 5708 5708 5708 5708 5708 5708 5707 5706 5705 5704 5702 5701 5701 5700 5698 5697 5696 5694 5692 5690 5687 5685 5681 5680 5681 5684
5721 5719 5718 5718 5718 5718 5718 5718 5717 5716 5717 5717 5715 5715 5713 5711 5709 5707 5706 5705 5704 5704 5705 5705 5704 5703 5702 5701 5700 5699 5697 5697 5695 5694 5692 5691 5690 5689 5686 5682 5679 5678 5680
5722 5721 5720 5720 5719 5718 5718 5717 5716 5715 5715 5715 5714 5713 5712 5710 5709 5708 5706 5705 5704 5704 5704 5703 5703 5702 5701 5700 5699 5697 5696 5695 5694 5693 5691 5690 5689 5688 5687 5684 5679 5675 5675
5723 5722 5722 5721 5720 5719 5718 5717 5716 5714 5714 5713 5712 5711 5711 5709 5708 5707 5706 5705 5704 5703 5703 5702 5701 5700 5699 5698 5697 5695 5693 5693 5691 5690 5689 5688 5687 5686 5686 5685 5682 5677 5671
5724 5723 5722 5721 5720 5719 5718 5717 5716 5714 5712 5711 5711 5710 5709 5708 5707 5706 5704 5703 5703 5702 5701 5700 5698 5697 5696 5695 5693 5692 5691 5690 5689 5687 5686 5685 5684 5684 5684 5683 5681 5679 5675
5726 5725 5723 5722 5720 5719 5717 5715 5714 5712 5710 5709 5709 5708 5706 5706 5705 5704 5703 5702 5701 5700 5699 5697 5695 5694 5693 5692 5690 5689 5688 5686 5685 5684 5683 5682 5682 5681 5680 5680 5678 5676 5674
5729 5727 5724 5721 5718 5717 5715 5714 5713 5711 5710 5708 5707 5705 5704 5703 5702 5701 5700 5700 5699 5698 5696 5694 5692 5691 5689 5688 5686 5685 5684 5682 5681 5680 5679 5678 5678 5677 5676 5675 5674 5673 5672
5728 5726 5723 5720 5718 5717 5715 5714 5712 5711 5709 5707 5704 5702 5701 5700 5699 5698 5698 5697 5696 5695 5693 5691 5689 5687 5686 5684 5683 5681 5679 5678 5677 5676 5675 5674 5674 5672 5671 5671 5670 5669 5669
5728 5724 5722 5720 5719 5718 5716 5714 5712 5710 5708 5704 5702 5700 5699 5698 5697 5696 5695 5694 5693 5691 5689 5688 5686 5684 5683 5681 5679 5677 5675 5673 5672 5672 5671 5671 5670 5669 5668 5667 5665 5664 5662
5726 5725 5722 5720 5719 5717 5715 5713 5711 5709 5707 5703 5700 5699 5698 5697 5695 5693 5692 5691 5690 5688 5686 5684 5682 5681 5679 5677 5675 5673 5671 5668 5667 5666 5666 5666 5666 5665 5664 5663 5660 5659 5657
5726 5726 5724 5722 5719 5718 5716 5714 5711 5709 5706 5702 5700 5698 5696 5694 5692 5690 5689 5687 5685 5684 5682 5680 5678 5676 5675 5674 5672 5669 5666 5664 5662 5661 5660 5660 5660 5660 5659 5659 5657 5656 5652
5728 5726 5725 5724 5722 5721 5718 5714 5712 5709 5705 5702 5699 5696 5693 5691 5689 5688 5685 5683 5681 5679 5677 5676 5674 5672 5671 5670 5668 5665 5662 5659 5657 5655 5654 5654 5654 5653 5652 5651 5651 5649 5648
5729 5729 5727 5725 5724 5722 5719 5716 5711 5707 5704 5701 5698 5695 5692 5689 5687 5684 5681 5679 5677 5675 5673 5671 5670 5668 5667 5666 5664 5661 5657 5654 5652 5650 5649 5648 5647 5647 5645 5644 5642 5641 5640
5733 5732 5731 5728 5725 5722 5719 5714 5708 5705 5701 5698 5696 5694 5690 5687 5683 5680 5678 5676 5674 5671 5669 5668 5666 5663 5662 5661 5659 5656 5652 5648 5647 5646 5645 5643 5642 5642 5640 5637 5635 5633 5633
5733 5732 5730 5727 5723 5721 5717 5711 5706 5702 5700 5698 5696 5693 5689 5685 5682 5679 5676 5673 5671 5668 5666 5664 5662 5660 5658 5657 5655 5652 5647 5643 5641 5640 5639 5639 5637 5636 5634 5631 5628 5625 5624
5732 5731 5728 5724 5722 5720 5715 5709 5704 5702 5701 5698 5694 5690 5687 5683 5680 5676 5672 5669 5666 5663 5661 5658 5657 5655 5653 5652 5650 5647 5643 5639 5636 5634 5632 5632 5631 5629 5627 5625 5622 5620 5618
5728 5727 5723 5720 5720 5718 5713 5707 5703 5703 5699 5695 5690 5687 5684 5681 5677 5672 5668 5665 5661 5657 5654 5652 5650 5649 5648 5647 5645 5643 5640 5637 5632 5629 5628 5626 5625 5622 5620 5617 5616 5613 5610
5724 5723 5720 5716 5714 5713 5711 5704 5702 5700 5696 5690 5686 5683 5679 5676 5672 5668 5663 5659 5656 5652 5649 5646 5644 5642 5642 5641 5640 5637 5634 5631 5627 5624 5622 5620 5617 5614 5611 5609 5607 5603 5599
5719 5717 5714 5711 5708 5708 5707 5704 5701 5697 5692 5686 5681 5678 5674 5670 5666 5663 5660 5655 5651 5648 5645 5642 5639 5637 5635 5634 5633 5630 5627 5624 5620 5617 5614 5612 5608 5605 5602 5599 5596 5593 5589
5714 5712 5709 5706 5704 5703 5701 5699 5696 5692 5686 5681 5676 5672 5669 5665 5660 5657 5654 5652 5650 5648 5644 5640 5637 5633 5630 5630 5629 5624 5621 5617 5613 5609 5605 5601 5597 5593 5590 5588 5585 5582 5579
5709 5706 5703 5700 5698 5697 5694 5693 5691 5688 5682 5675 5671 5667 5663 5659 5655 5651 5647 5646 5645 5643 5641 5638 5634 5631 5629 5626 5623 5619 5615 5611 5607 5601 5595 5591 5587 5584 5581 5577 5574 5571 5567